Cook, MN

1:17 AM CST on February 07, 2016 (GMT -0600)
Cook Municipal

Weather History for KCQM - October, 2011

Change the Weather History Date:

Thursday, October 13, 2011

  Actual Average Record
Temperature  
Mean Temperature 48 °F -  
Max Temperature 53 °F 50 °F 64 °F (2000)
Min Temperature 44 °F 32 °F 24 °F (2002)
Degree Days  
Heating Degree Days 16    
Moisture  
Dew Point 49 °F    
Average Humidity 94    
Maximum Humidity 100    
Minimum Humidity 81    
Precipitation  
Precipitation 0.00 in - - ()
Sea Level Pressure  
Sea Level Pressure 29.57 in    
Wind  
Wind Speed 4 mph (West)    
Max Wind Speed 14 mph    
Max Gust Speed 21 mph    
Visibility 8 miles    
Events Rain    
Averages and records for this station are not official NWS values.
T = Trace of Precipitation, MM = Missing Value Source: NWS Daily Summary

Daily Weather History Graph

Daily Weather History Graph

Search for Another Location

Airport or City:

Trip Planner

Search our weather history database for the weather conditions in past years. The results will help you decide how hot, cold, wet, or windy it might be!

Date:

Astronomy

Oct. 13, 2011 Rise Set
Actual Time 7:26 AM CDT 6:26 PM CDT
Civil Twilight 6:55 AM CDT 6:57 PM CDT
Nautical Twilight 6:19 AM CDT 7:33 PM CDT
Astronomical Twilight 5:43 AM CDT 8:09 PM CDT
Moon 6:49 PM CDT (10/13) 9:10 AM CDT (10/13)
Length of Visible Light 12h 02m
Length of Day
11h 00m
Full, 98% of the Moon is Illuminated
Oct 13
Full
Oct 19
Last Quarter
Oct 26
New
Nov 2
First Quarter
Nov 10
Full

Hourly Weather History & Observations

Time (CDT) Temp. Windchill Dew Point Humidity Pressure Visibility Wind Dir Wind Speed Gust Speed Precip Events Conditions
12:16 AM 53.6 °F - 53.6 °F 100% 29.65 in 7.0 mi SSE 3.5 mph - N/A Rain Light Rain
12:37 AM 53.6 °F - 53.6 °F 100% 29.64 in 10.0 mi Calm Calm - N/A   Drizzle
1:16 AM 53.6 °F - 53.6 °F 100% 29.63 in 7.0 mi Calm Calm - N/A Rain Light Rain
1:36 AM 53.6 °F - 51.8 °F 94% 29.62 in 7.0 mi Calm Calm - N/A Rain Light Rain
1:56 AM 53.6 °F - 51.8 °F 94% 29.62 in 7.0 mi Calm Calm - N/A Rain Light Rain
2:17 AM 53.6 °F - 51.8 °F 94% 29.61 in 5.0 mi Calm Calm - N/A Rain Light Rain
2:36 AM 53.6 °F - 51.8 °F 94% 29.61 in 7.0 mi Calm Calm - N/A Rain Light Rain
2:56 AM 53.6 °F - 51.8 °F 94% 29.60 in 10.0 mi Calm Calm - N/A   Drizzle
3:17 AM 53.6 °F - 51.8 °F 94% 29.60 in 10.0 mi Calm Calm - N/A   Drizzle
3:37 AM 53.6 °F - 51.8 °F 94% 29.59 in 7.0 mi SE 3.5 mph - N/A   Mostly Cloudy
3:56 AM 53.6 °F - 51.8 °F 94% 29.58 in 10.0 mi Calm Calm - N/A   Drizzle
4:17 AM 53.6 °F - 51.8 °F 94% 29.59 in 10.0 mi Calm Calm - N/A Rain Rain
4:36 AM 53.6 °F - 51.8 °F 94% 29.59 in 10.0 mi Calm Calm - N/A Rain Light Rain
5:16 AM 51.8 °F - 51.8 °F 100% 29.58 in 10.0 mi Calm Calm - N/A   Overcast
5:36 AM 53.6 °F - 51.8 °F 94% 29.58 in 10.0 mi Calm Calm - N/A   Overcast
5:56 AM 53.6 °F - 51.8 °F 94% 29.58 in 10.0 mi Calm Calm - N/A   Overcast
6:17 AM 53.6 °F - 51.8 °F 94% 29.58 in 10.0 mi Calm Calm - N/A   Overcast
6:36 AM 53.6 °F - 51.8 °F 94% 29.57 in 10.0 mi SSW 3.5 mph - N/A   Overcast
6:56 AM 53.6 °F - 51.8 °F 94% 29.57 in 4.0 mi SW 3.5 mph - N/A   Overcast
7:16 AM 53.6 °F - 51.8 °F 94% 29.57 in 5.0 mi West 5.8 mph - N/A   Overcast
7:36 AM 53.6 °F - 51.8 °F 94% 29.57 in 5.0 mi West 5.8 mph - N/A   Overcast
7:57 AM 51.8 °F - 51.8 °F 100% 29.57 in 5.0 mi West 5.8 mph - N/A   Overcast
8:36 AM 51.8 °F - 51.8 °F 100% 29.56 in 10.0 mi West 5.8 mph - N/A   Overcast
9:16 AM 51.8 °F - 51.8 °F 100% 29.56 in 10.0 mi West 8.1 mph - N/A   Overcast
9:36 AM 51.8 °F - 51.8 °F 100% 29.56 in 10.0 mi West 8.1 mph - N/A   Overcast
9:56 AM 51.8 °F - 51.8 °F 100% 29.56 in 10.0 mi West 6.9 mph - N/A   Overcast
10:36 AM 51.8 °F - 51.8 °F 100% 29.56 in 10.0 mi West 6.9 mph - N/A   Overcast
10:57 AM 51.8 °F - 51.8 °F 100% 29.56 in 1.8 mi West 4.6 mph - N/A Rain Heavy Rain
11:16 AM 51.8 °F - 51.8 °F 100% 29.55 in 2.0 mi West 8.1 mph - N/A   Drizzle
11:36 AM 51.8 °F - 50.0 °F 94% 29.55 in 2.0 mi West 11.5 mph 20.7 mph N/A   Drizzle
11:56 AM 51.8 °F - 50.0 °F 94% 29.55 in 3.0 mi West 13.8 mph 18.4 mph N/A   Drizzle
12:16 PM 51.8 °F - 50.0 °F 94% 29.55 in 10.0 mi West 9.2 mph - N/A   Overcast
12:36 PM 51.8 °F - 50.0 °F 94% 29.55 in 10.0 mi West 9.2 mph - N/A   Overcast
12:56 PM 51.8 °F - 50.0 °F 94% 29.55 in 7.0 mi West 11.5 mph - N/A   Overcast
1:16 PM 51.8 °F - 48.2 °F 88% 29.55 in 7.0 mi West 9.2 mph 18.4 mph N/A Rain Rain
1:36 PM 51.8 °F - 48.2 °F 88% 29.55 in 10.0 mi WNW 8.1 mph - N/A   Drizzle
2:16 PM 51.8 °F - 48.2 °F 88% 29.54 in 10.0 mi NW 6.9 mph - N/A   Overcast
2:36 PM 48.2 °F - 48.2 °F 100% 29.55 in 2.5 mi West 11.5 mph 18.4 mph N/A   Drizzle
2:56 PM 48.2 °F - 48.2 °F 100% 29.55 in 1.8 mi WNW 8.1 mph - N/A   Drizzle
3:16 PM 50.0 °F - 48.2 °F 94% 29.56 in 1.5 mi WNW 13.8 mph 20.7 mph N/A   Drizzle
3:37 PM 48.2 °F - 46.4 °F 93% 29.56 in 7.0 mi WNW 11.5 mph 17.3 mph N/A   Overcast
3:56 PM 48.2 °F - 46.4 °F 93% 29.56 in 10.0 mi WNW 11.5 mph - N/A   Overcast
4:16 PM 48.2 °F - 46.4 °F 93% 29.56 in 10.0 mi WNW 9.2 mph - N/A   Overcast
4:36 PM 48.2 °F - 46.4 °F 93% 29.56 in 10.0 mi WNW 6.9 mph 17.3 mph N/A   Overcast
4:56 PM 48.2 °F - 46.4 °F 93% 29.57 in 4.0 mi WNW 10.4 mph 17.3 mph N/A   Overcast
5:16 PM 48.2 °F - 46.4 °F 93% 29.57 in 7.0 mi WNW 5.8 mph - N/A   Overcast
5:36 PM 48.2 °F - 46.4 °F 93% 29.57 in 10.0 mi West 6.9 mph - N/A   Overcast
6:16 PM 46.4 °F 42.4 °F 44.6 °F 93% 29.58 in 10.0 mi WNW 8.1 mph - N/A   Overcast
6:37 PM 46.4 °F 43.5 °F 44.6 °F 93% 29.58 in 10.0 mi WNW 5.8 mph - N/A   Overcast
6:56 PM 46.4 °F 43.5 °F 44.6 °F 93% 29.58 in 10.0 mi West 5.8 mph - N/A   Overcast
7:16 PM 46.4 °F 42.4 °F 42.8 °F 87% 29.58 in 10.0 mi West 8.1 mph - N/A   Overcast
7:36 PM 46.4 °F 43.5 °F 42.8 °F 87% 29.58 in 10.0 mi West 5.8 mph - N/A   Overcast
8:17 PM 46.4 °F 44.3 °F 41.0 °F 81% 29.57 in 10.0 mi WNW 4.6 mph - N/A   Overcast
8:36 PM 44.6 °F 40.7 °F 41.0 °F 87% 29.57 in 10.0 mi West 6.9 mph - N/A   Overcast
9:16 PM 46.4 °F 42.4 °F 41.0 °F 81% 29.57 in 10.0 mi West 8.1 mph - N/A   Overcast
9:36 PM 44.6 °F 40.2 °F 41.0 °F 87% 29.57 in 10.0 mi West 8.1 mph - N/A   Overcast
9:56 PM 44.6 °F 41.4 °F 41.0 °F 87% 29.57 in 10.0 mi WNW 5.8 mph - N/A   Overcast
10:17 PM 44.6 °F 40.2 °F 41.0 °F 87% 29.56 in 10.0 mi WNW 8.1 mph - N/A   Overcast
10:36 PM 44.6 °F 40.2 °F 41.0 °F 87% 29.56 in 10.0 mi WNW 8.1 mph - N/A   Overcast
10:56 PM 44.6 °F 40.7 °F 41.0 °F 87% 29.57 in 10.0 mi West 6.9 mph - N/A   Overcast
11:17 PM 44.6 °F 41.4 °F 41.0 °F 87% 29.56 in 10.0 mi West 5.8 mph - N/A   Overcast
11:36 PM 44.6 °F 40.2 °F 41.0 °F 87% 29.56 in 10.0 mi West 8.1 mph - N/A   Overcast
11:56 PM 44.6 °F 39.2 °F 41.0 °F 87% 29.56 in 10.0 mi West 10.4 mph - N/A   Overcast